Tracking 18823 objects as of 20-October-2017
HD Live streaming from Space Station
objects crossing your sky now

ARIANE 5 DEB (SYLDA)

Track ARIANE 5 DEB (SYLDA) now!


NORAD ID: 28914
Int'l Code: 2005-049D
Perigee: 635.1 km
Apogee: 36,051.0 km
Inclination: 4.3 °
Period: 644.4 minutes
Semi major axis: 24714 km
RCS: 22.4158 m2 (large)
Launch date: December 21, 2005
Source: France (FR)
Launch site: FRENCH GUIANA (FRGUI)

Note: This is SATELLITE DEBRIS
aabbcc
Your satellite tracking list
Your tracking list is empty





NASA's NSSDC Master Catalog

Two Line Element Set (TLE):
1 28914U 05049D   17293.39577420 -.00000157  00000-0  40775-3 0  9991
2 28914   4.2874  68.6973 7165142 127.6611  41.2697  2.23453644 96557
Source of the keplerian elements: AFSPC